Time,TemperatureF,DewpointF,PressureIn,WindDirection,WindDirectionDegrees,WindSpeedMPH,WindSpeedGustMPH,Humidity,HourlyPrecipIn,Conditions,Clouds,dailyrainin,SoftwareType,DateUTC
2013-01-17 00:08:00,34.4,32.0,30.13,ENE,71,1.0,9.0,90,0.00,,,0.00,weatherlink.com 1.10,2013-01-17 05:08:00,
2013-01-17 00:23:00,34.1,32.0,30.14,ESE,114,2.0,4.0,90,0.00,,,0.00,weatherlink.com 1.10,2013-01-17 05:23:00,
2013-01-17 00:38:00,33.5,32.0,30.14,ESE,115,1.0,7.0,92,0.00,,,0.00,weatherlink.com 1.10,2013-01-17 05:38:00,
2013-01-17 00:53:00,34.4,32.0,30.14,ENE,66,4.0,10.0,89,0.00,,,0.00,weatherlink.com 1.10,2013-01-17 05:53:00,
2013-01-17 01:08:00,34.8,31.0,30.13,South,191,0.0,9.0,87,0.00,,,0.00,weatherlink.com 1.10,2013-01-17 06:08:00,
2013-01-17 01:23:00,34.7,31.0,30.13,SE,145,2.0,8.0,87,0.00,,,0.00,weatherlink.com 1.10,2013-01-17 06:23:00,
2013-01-17 01:38:00,34.7,31.0,30.14,SSE,155,7.0,10.0,87,0.00,,,0.00,weatherlink.com 1.10,2013-01-17 06:38:00,
2013-01-17 01:53:00,34.9,31.0,30.14,ESE,105,2.0,8.0,86,0.00,,,0.00,weatherlink.com 1.10,2013-01-17 06:53:00,
2013-01-17 02:08:00,34.8,31.0,30.14,SSW,207,2.0,7.0,85,0.00,,,0.00,weatherlink.com 1.10,2013-01-17 07:08:00,
2013-01-17 02:23:00,34.8,30.0,30.14,SSW,213,7.0,10.0,84,0.00,,,0.00,weatherlink.com 1.10,2013-01-17 07:23:00,
2013-01-17 02:38:00,34.7,30.0,30.15,South,181,8.0,16.0,84,0.00,,,0.00,weatherlink.com 1.10,2013-01-17 07:38:00,
2013-01-17 02:53:00,34.6,30.0,30.15,West,273,3.0,10.0,84,0.00,,,0.00,weatherlink.com 1.10,2013-01-17 07:53:00,
2013-01-17 03:08:00,34.4,30.0,30.15,South,179,10.0,14.0,85,0.00,,,0.00,weatherlink.com 1.10,2013-01-17 08:08:00,
2013-01-17 03:23:00,34.2,30.0,30.15,South,188,6.0,9.0,85,0.00,,,0.00,weatherlink.com 1.10,2013-01-17 08:23:00,
2013-01-17 03:38:00,34.0,30.0,30.15,SW,225,5.0,13.0,85,0.00,,,0.00,weatherlink.com 1.10,2013-01-17 08:38:00,
2013-01-17 03:53:00,33.9,30.0,30.13,South,175,2.0,12.0,85,0.00,,,0.00,weatherlink.com 1.10,2013-01-17 08:53:00,
2013-01-17 04:08:00,33.8,30.0,30.13,WNW,301,0.0,9.0,85,0.00,,,0.00,weatherlink.com 1.10,2013-01-17 09:08:00,
2013-01-17 04:23:00,33.7,30.0,30.12,SSE,162,4.0,9.0,85,0.00,,,0.00,weatherlink.com 1.10,2013-01-17 09:23:00,
2013-01-17 04:38:00,33.6,29.0,30.14,SE,140,7.0,9.0,84,0.00,,,0.00,weatherlink.com 1.10,2013-01-17 09:38:00,
2013-01-17 04:53:00,33.8,29.0,30.14,NW,319,2.0,10.0,83,0.00,,,0.00,weatherlink.com 1.10,2013-01-17 09:53:00,
2013-01-17 05:08:00,33.5,29.0,30.14,SSE,159,7.0,12.0,83,0.00,,,0.00,weatherlink.com 1.10,2013-01-17 10:08:00,
2013-01-17 05:23:00,33.4,29.0,30.15,West,262,2.0,8.0,83,0.00,,,0.00,weatherlink.com 1.10,2013-01-17 10:23:00,
2013-01-17 05:38:00,33.2,29.0,30.17,South,191,5.0,8.0,83,0.00,,,0.00,weatherlink.com 1.10,2013-01-17 10:38:00,
2013-01-17 05:53:00,33.1,29.0,30.18,WNW,296,2.0,5.0,83,0.00,,,0.00,weatherlink.com 1.10,2013-01-17 10:53:00,
2013-01-17 06:08:00,33.0,28.0,30.19,SSE,161,2.0,8.0,83,0.00,,,0.00,weatherlink.com 1.10,2013-01-17 11:08:00,
2013-01-17 06:23:00,33.2,28.0,30.19,SSE,165,2.0,7.0,82,0.00,,,0.00,weatherlink.com 1.10,2013-01-17 11:23:00,
2013-01-17 06:38:00,33.3,28.0,30.20,WNW,292,0.0,10.0,82,0.00,,,0.00,weatherlink.com 1.10,2013-01-17 11:38:00,
2013-01-17 06:53:00,33.3,28.0,30.20,SW,231,2.0,13.0,82,0.00,,,0.00,weatherlink.com 1.10,2013-01-17 11:53:00,
2013-01-17 07:08:00,33.2,28.0,30.21,SSE,156,5.0,11.0,81,0.00,,,0.00,weatherlink.com 1.10,2013-01-17 12:08:00,
2013-01-17 07:23:00,33.1,28.0,30.23,SSE,167,4.0,16.0,82,0.00,,,0.00,weatherlink.com 1.10,2013-01-17 12:23:00,
2013-01-17 07:38:00,33.0,28.0,30.21,WSW,244,4.0,13.0,81,0.00,,,0.00,weatherlink.com 1.10,2013-01-17 12:38:00,
2013-01-17 08:08:00,33.3,28.0,30.23,SW,214,4.0,13.0,81,0.00,,,0.00,weatherlink.com 1.10,2013-01-17 13:08:00,
2013-01-17 08:23:00,33.5,28.0,30.24,SW,214,4.0,9.0,81,0.00,,,0.00,weatherlink.com 1.10,2013-01-17 13:23:00,
2013-01-17 08:38:00,33.8,28.0,30.24,SE,124,1.0,8.0,80,0.00,,,0.00,weatherlink.com 1.10,2013-01-17 13:38:00,
2013-01-17 08:53:00,34.2,28.0,30.23,West,261,3.0,15.0,79,0.00,,,0.00,weatherlink.com 1.10,2013-01-17 13:53:00,
2013-01-17 09:08:00,34.9,29.0,30.25,NW,306,1.0,10.0,78,0.00,,,0.00,weatherlink.com 1.10,2013-01-17 14:08:00,
2013-01-17 09:24:00,35.5,29.0,30.27,SE,125,1.0,13.0,77,0.00,,,0.00,weatherlink.com 1.10,2013-01-17 14:24:00,
2013-01-17 09:39:00,36.3,29.0,30.27,SSE,168,5.0,11.0,76,0.00,,,0.00,weatherlink.com 1.10,2013-01-17 14:39:00,
2013-01-17 09:54:00,36.2,29.0,30.28,SSW,209,3.0,9.0,76,0.00,,,0.00,weatherlink.com 1.10,2013-01-17 14:54:00,
2013-01-17 10:09:00,36.0,29.0,30.28,SW,216,5.0,7.0,76,0.00,,,0.00,weatherlink.com 1.10,2013-01-17 15:09:00,
2013-01-17 10:24:00,36.2,29.0,30.27,SW,226,0.0,5.0,76,0.00,,,0.00,weatherlink.com 1.10,2013-01-17 15:24:00,
2013-01-17 10:39:00,37.0,29.0,30.27,SSE,161,3.0,8.0,74,0.00,,,0.00,weatherlink.com 1.10,2013-01-17 15:39:00,
2013-01-17 10:54:00,37.1,30.0,30.28,South,178,5.0,7.0,75,0.00,,,0.00,weatherlink.com 1.10,2013-01-17 15:54:00,
2013-01-17 11:09:00,37.1,30.0,30.28,SSE,156,3.0,8.0,75,0.00,,,0.00,weatherlink.com 1.10,2013-01-17 16:09:00,
2013-01-17 11:24:00,37.8,30.0,30.27,West,261,1.0,9.0,74,0.00,,,0.00,weatherlink.com 1.10,2013-01-17 16:24:00,
2013-01-17 11:39:00,37.6,29.0,30.27,SSW,194,5.0,15.0,72,0.00,,,0.00,weatherlink.com 1.10,2013-01-17 16:39:00,
2013-01-17 11:54:00,37.5,30.0,30.27,SW,222,7.0,10.0,74,0.04,,,0.04,weatherlink.com 1.10,2013-01-17 16:54:00,
2013-01-17 12:09:00,37.3,29.0,30.27,SSW,203,0.0,10.0,73,0.07,,,0.07,weatherlink.com 1.10,2013-01-17 17:09:00,
2013-01-17 12:24:00,38.3,30.0,30.26,SE,142,1.0,8.0,71,0.09,,,0.09,weatherlink.com 1.10,2013-01-17 17:24:00,
2013-01-17 12:39:00,38.3,30.0,30.25,SE,141,2.0,6.0,71,0.11,,,0.11,weatherlink.com 1.10,2013-01-17 17:39:00,
2013-01-17 12:54:00,40.2,30.0,30.25,SSW,206,1.0,10.0,66,0.09,,,0.13,weatherlink.com 1.10,2013-01-17 17:54:00,
2013-01-17 13:09:00,39.9,29.0,30.25,WNW,285,2.0,11.0,64,0.09,,,0.16,weatherlink.com 1.10,2013-01-17 18:09:00,
2013-01-17 13:24:00,39.3,28.0,30.25,SW,222,1.0,8.0,65,0.09,,,0.18,weatherlink.com 1.10,2013-01-17 18:24:00,
2013-01-17 13:39:00,38.9,28.0,30.25,South,176,10.0,10.0,66,0.09,,,0.20,weatherlink.com 1.10,2013-01-17 18:39:00,
2013-01-17 13:54:00,38.4,28.0,30.26,South,177,1.0,10.0,66,0.08,,,0.22,weatherlink.com 1.10,2013-01-17 18:54:00,
2013-01-17 14:09:00,38.2,28.0,30.26,SSE,163,1.0,7.0,67,0.07,,,0.23,weatherlink.com 1.10,2013-01-17 19:09:00,
2013-01-17 14:24:00,38.2,28.0,30.25,West,270,2.0,5.0,67,0.06,,,0.24,weatherlink.com 1.10,2013-01-17 19:24:00,
2013-01-17 14:39:00,37.9,29.0,30.26,SSW,200,2.0,6.0,69,0.04,,,0.24,weatherlink.com 1.10,2013-01-17 19:39:00,
2013-01-17 14:54:00,37.9,28.0,30.26,South,191,2.0,9.0,68,0.03,,,0.25,weatherlink.com 1.10,2013-01-17 19:54:00,
2013-01-17 15:09:00,38.0,29.0,30.26,SSW,211,1.0,6.0,69,0.03,,,0.26,weatherlink.com 1.10,2013-01-17 20:09:00,
2013-01-17 15:24:00,37.7,28.0,30.25,South,187,2.0,7.0,69,0.02,,,0.26,weatherlink.com 1.10,2013-01-17 20:24:00,
2013-01-17 15:39:00,37.5,28.0,30.26,SSW,196,4.0,9.0,69,0.03,,,0.27,weatherlink.com 1.10,2013-01-17 20:39:00,
2013-01-17 15:54:00,37.4,28.0,30.26,NW,304,2.0,3.0,69,0.03,,,0.28,weatherlink.com 1.10,2013-01-17 20:54:00,
2013-01-17 16:09:00,37.0,28.0,30.27,South,175,2.0,4.0,70,0.02,,,0.28,weatherlink.com 1.10,2013-01-17 21:09:00,
2013-01-17 16:24:00,36.9,28.0,30.27,ESE,115,0.0,4.0,70,0.02,,,0.28,weatherlink.com 1.10,2013-01-17 21:24:00,
2013-01-17 16:39:00,36.7,28.0,30.28,South,174,0.0,4.0,70,0.01,,,0.28,weatherlink.com 1.10,2013-01-17 21:39:00,
2013-01-17 16:54:00,36.3,27.0,30.29,South,185,2.0,3.0,69,0.01,,,0.29,weatherlink.com 1.10,2013-01-17 21:54:00,
2013-01-17 17:09:00,36.2,27.0,30.29,SSW,194,0.0,4.0,69,0.01,,,0.29,weatherlink.com 1.10,2013-01-17 22:09:00,
2013-01-17 17:24:00,35.9,27.0,30.29,SSW,198,4.0,7.0,70,0.01,,,0.29,weatherlink.com 1.10,2013-01-17 22:24:00,
2013-01-17 17:39:00,35.7,28.0,30.30,SW,235,1.0,4.0,73,0.01,,,0.29,weatherlink.com 1.10,2013-01-17 22:39:00,
2013-01-17 17:54:00,35.2,28.0,30.32,WNW,294,3.0,4.0,75,0.00,,,0.29,weatherlink.com 1.10,2013-01-17 22:54:00,
2013-01-17 18:09:00,34.7,28.0,30.30,West,265,1.0,6.0,75,0.00,,,0.29,weatherlink.com 1.10,2013-01-17 23:09:00,
2013-01-17 18:24:00,34.1,27.0,30.31,West,267,1.0,4.0,76,0.01,,,0.30,weatherlink.com 1.10,2013-01-17 23:24:00,
2013-01-17 18:39:00,33.6,26.0,30.32,WNW,300,2.0,5.0,75,0.01,,,0.30,weatherlink.com 1.10,2013-01-17 23:39:00,
2013-01-17 18:54:00,33.3,27.0,30.33,SSW,205,2.0,4.0,76,0.01,,,0.30,weatherlink.com 1.10,2013-01-17 23:54:00,
2013-01-17 19:09:00,32.9,25.0,30.33,WNW,300,1.0,5.0,74,0.01,,,0.30,weatherlink.com 1.10,2013-01-18 00:09:00,
2013-01-17 19:24:00,32.3,25.0,30.33,NW,313,2.0,6.0,73,0.00,,,0.30,weatherlink.com 1.10,2013-01-18 00:24:00,
2013-01-17 19:39:00,31.7,23.0,30.32,West,265,1.0,5.0,71,0.00,,,0.30,weatherlink.com 1.10,2013-01-18 00:39:00,
2013-01-17 19:55:00,31.2,23.0,30.32,WNW,296,2.0,4.0,71,0.00,,,0.30,weatherlink.com 1.10,2013-01-18 00:55:00,
2013-01-17 20:10:00,30.8,23.0,30.32,NNW,336,1.0,4.0,74,0.00,,,0.30,weatherlink.com 1.10,2013-01-18 01:10:00,
2013-01-17 20:25:00,30.3,22.0,30.32,NW,325,1.0,5.0,71,0.00,,,0.30,weatherlink.com 1.10,2013-01-18 01:25:00,
2013-01-17 20:40:00,29.9,21.0,30.32,NW,315,2.0,7.0,70,0.00,,,0.30,weatherlink.com 1.10,2013-01-18 01:40:00,
2013-01-17 20:55:00,29.5,21.0,30.30,WNW,300,2.0,5.0,71,0.00,,,0.30,weatherlink.com 1.10,2013-01-18 01:55:00,
2013-01-17 21:10:00,29.0,21.0,30.30,NW,309,1.0,6.0,72,0.00,,,0.30,weatherlink.com 1.10,2013-01-18 02:10:00,
2013-01-17 21:25:00,28.5,21.0,30.30,WNW,303,2.0,8.0,73,0.00,,,0.30,weatherlink.com 1.10,2013-01-18 02:25:00,
2013-01-17 21:40:00,28.2,21.0,30.30,WNW,300,2.0,4.0,74,0.00,,,0.30,weatherlink.com 1.10,2013-01-18 02:40:00,
2013-01-17 21:55:00,27.8,20.0,30.30,NW,317,3.0,7.0,73,0.00,,,0.30,weatherlink.com 1.10,2013-01-18 02:55:00,
2013-01-17 22:10:00,27.5,20.0,30.30,NW,310,3.0,5.0,73,0.00,,,0.30,weatherlink.com 1.10,2013-01-18 03:10:00,
2013-01-17 22:25:00,27.3,20.0,30.30,West,276,2.0,5.0,74,0.00,,,0.30,weatherlink.com 1.10,2013-01-18 03:25:00,
2013-01-17 22:40:00,27.0,19.0,30.28,WNW,288,1.0,5.0,73,0.00,,,0.30,weatherlink.com 1.10,2013-01-18 03:40:00,
2013-01-17 22:55:00,26.7,19.0,30.27,SW,227,2.0,5.0,73,0.00,,,0.30,weatherlink.com 1.10,2013-01-18 03:55:00,
2013-01-17 23:10:00,26.2,17.0,30.26,SW,225,4.0,7.0,69,0.00,,,0.30,weatherlink.com 1.10,2013-01-18 04:10:00,
2013-01-17 23:25:00,25.8,16.0,30.29,WSW,252,4.0,6.0,67,0.00,,,0.30,weatherlink.com 1.10,2013-01-18 04:25:00,
2013-01-17 23:40:00,25.6,16.0,30.30,WSW,252,2.0,6.0,66,0.00,,,0.30,weatherlink.com 1.10,2013-01-18 04:40:00,
2013-01-17 23:55:00,25.5,14.0,30.31,West,266,2.0,6.0,63,0.00,,,0.30,weatherlink.com 1.10,2013-01-18 04:55:00,